Location: Ward Pound Ridge Reservation
(41.2500°N, 73.6000°W)
Time: 21:14:23
(UTC-04:00)

Tiangong 2 - Pass Details

Date: 09 October 2017
Orbit: 388 x 392 km, 42.8° (Epoch: 19 October)

Event Time Altitude Azimuth Distance (km) Brightness Sun altitude
Exits shadow 04:56:09 18° 135° (SE) 1,026 3.5 -23.9°
Drops below altitude 10° 04:58:02 10° 100° (E) 1,420 4.8 -23.6°
Sets 05:00:30 0° 82° (E) 2,279 6.4 -23.1°
